Year,Month,Day,Hour,Minute,Value (Times are PST for temperature in C)
2015,03,17,09,40,7.00
2015,03,17,09,41,7.10
2015,03,17,09,42,7.10
2015,03,17,09,43,7.20
2015,03,17,09,44,7.20
2015,03,17,09,45,7.30
2015,03,17,09,46,7.40
2015,03,17,09,47,7.40
2015,03,17,09,48,7.40
2015,03,17,09,49,7.40
2015,03,17,09,50,7.50
2015,03,17,09,51,7.50
2015,03,17,09,52,7.60
2015,03,17,09,53,7.60
2015,03,17,09,54,7.70
2015,03,17,09,55,7.80
2015,03,17,09,56,7.80
2015,03,17,09,57,7.90
2015,03,17,09,58,7.90
2015,03,17,09,59,7.90
2015,03,17,10,00,8.00
2015,03,17,10,01,8.00
2015,03,17,10,02,8.00
2015,03,17,10,03,8.10
2015,03,17,10,04,8.10
2015,03,17,10,05,8.10
2015,03,17,10,06,8.10
2015,03,17,10,07,8.10
2015,03,17,10,08,8.20
2015,03,17,10,09,8.30
2015,03,17,10,10,8.40
2015,03,17,10,11,8.50
2015,03,17,10,12,8.60
2015,03,17,10,13,8.70
2015,03,17,10,14,8.80
2015,03,17,10,15,8.80
2015,03,17,10,16,8.80
2015,03,17,10,17,8.80
2015,03,17,10,18,8.80
2015,03,17,10,19,8.90
2015,03,17,10,20,8.90
2015,03,17,10,21,8.90
2015,03,17,10,22,8.90
2015,03,17,10,23,8.90
2015,03,17,10,24,8.90
2015,03,17,10,25,8.90
2015,03,17,10,26,8.90
2015,03,17,10,27,9.00
2015,03,17,10,28,9.00
2015,03,17,10,29,9.00
2015,03,17,10,30,9.00
2015,03,17,10,31,9.10
2015,03,17,10,32,9.20
2015,03,17,10,33,9.30
2015,03,17,10,34,9.50
2015,03,17,10,35,9.60
2015,03,17,10,36,9.70
2015,03,17,10,37,9.70
2015,03,17,10,38,9.70
2015,03,17,10,39,9.70
2015,03,17,10,40,9.80
2015,03,17,10,41,9.80
2015,03,17,10,42,9.90
2015,03,17,10,43,10.00
2015,03,17,10,44,10.00
2015,03,17,10,45,10.10
2015,03,17,10,46,10.20
2015,03,17,10,47,10.30
2015,03,17,10,48,10.30
2015,03,17,10,49,10.40
2015,03,17,10,50,10.40
2015,03,17,10,51,10.40
2015,03,17,10,52,10.30
2015,03,17,10,53,10.20
2015,03,17,10,54,10.10
2015,03,17,10,55,10.10
2015,03,17,10,56,10.00
2015,03,17,10,57,9.90
2015,03,17,10,58,9.90
2015,03,17,10,59,9.80
2015,03,17,11,00,9.80
2015,03,17,11,01,9.80
2015,03,17,11,02,9.90
2015,03,17,11,03,9.90
2015,03,17,11,04,10.00
2015,03,17,11,05,10.10
2015,03,17,11,06,10.10
2015,03,17,11,07,10.10
2015,03,17,11,08,10.10
2015,03,17,11,09,10.20
2015,03,17,11,10,10.20
2015,03,17,11,11,10.30
2015,03,17,11,12,10.40
2015,03,17,11,13,10.40
2015,03,17,11,14,10.40
2015,03,17,11,15,10.40
2015,03,17,11,16,10.40
2015,03,17,11,17,10.40
2015,03,17,11,18,10.50
2015,03,17,11,19,10.50
2015,03,17,11,20,10.60
2015,03,17,11,21,10.60
2015,03,17,11,22,10.70
2015,03,17,11,23,10.70
2015,03,17,11,24,10.70
2015,03,17,11,25,10.70
2015,03,17,11,26,10.70
2015,03,17,11,27,10.70
2015,03,17,11,28,10.80
2015,03,17,11,29,10.90
2015,03,17,11,30,10.90
2015,03,17,11,31,10.90
2015,03,17,11,32,10.90
2015,03,17,11,33,10.90
2015,03,17,11,34,10.90
2015,03,17,11,35,11.00
2015,03,17,11,36,10.90
2015,03,17,11,37,10.90
2015,03,17,11,38,10.90
2015,03,17,11,39,10.80
2015,03,17,11,40,10.80
2015,03,17,11,41,10.80
2015,03,17,11,42,10.80
2015,03,17,11,43,10.80
2015,03,17,11,44,10.80
2015,03,17,11,45,10.90
2015,03,17,11,46,10.90
2015,03,17,11,47,11.00
2015,03,17,11,48,11.00
2015,03,17,11,49,11.00
2015,03,17,11,50,11.10
2015,03,17,11,51,11.10
2015,03,17,11,52,11.10
2015,03,17,11,53,11.10
2015,03,17,11,54,11.10
2015,03,17,11,55,11.10
2015,03,17,11,56,11.00
2015,03,17,11,57,11.00
2015,03,17,11,58,11.00
2015,03,17,11,59,10.90
2015,03,17,12,00,10.80
2015,03,17,12,01,10.70
2015,03,17,12,02,10.70
2015,03,17,12,03,10.60
2015,03,17,12,04,10.60
2015,03,17,12,05,10.60
2015,03,17,12,06,10.60
2015,03,17,12,07,10.70
2015,03,17,12,08,10.80
2015,03,17,12,09,10.90
2015,03,17,12,10,10.90
2015,03,17,12,11,10.90
2015,03,17,12,12,10.80
2015,03,17,12,13,10.80
2015,03,17,12,14,10.70
2015,03,17,12,15,10.70
2015,03,17,12,16,10.70
2015,03,17,12,17,10.70
2015,03,17,12,18,10.70
2015,03,17,12,19,10.70
2015,03,17,12,20,10.70
2015,03,17,12,21,10.70
2015,03,17,12,22,10.70
2015,03,17,12,23,10.70
2015,03,17,12,24,10.70
2015,03,17,12,25,10.70
2015,03,17,12,26,10.70
2015,03,17,12,27,10.70
2015,03,17,12,28,10.70
2015,03,17,12,29,10.60
2015,03,17,12,30,10.50
2015,03,17,12,31,10.50
2015,03,17,12,32,10.50
2015,03,17,12,33,10.40
2015,03,17,12,34,10.40
2015,03,17,12,35,10.40
2015,03,17,12,36,10.40
2015,03,17,12,37,10.40
2015,03,17,12,38,10.50
2015,03,17,12,39,10.50
2015,03,17,12,40,10.50
2015,03,17,12,41,10.50
2015,03,17,12,42,10.40
2015,03,17,12,43,10.40
2015,03,17,12,44,10.30
2015,03,17,12,45,10.30
2015,03,17,12,46,10.30
2015,03,17,12,47,10.30
2015,03,17,12,48,10.20
2015,03,17,12,49,10.20
2015,03,17,12,50,10.20
2015,03,17,12,51,10.30
2015,03,17,12,52,10.30
2015,03,17,12,53,10.20
2015,03,17,12,54,10.20
2015,03,17,12,55,10.20
2015,03,17,12,56,10.30
2015,03,17,12,57,10.30
2015,03,17,12,58,10.40
2015,03,17,12,59,10.40
2015,03,17,13,00,10.50
2015,03,17,13,01,10.50
2015,03,17,13,02,10.60
2015,03,17,13,03,10.70
2015,03,17,13,04,10.80
2015,03,17,13,05,10.90
2015,03,17,13,06,11.00
2015,03,17,13,07,11.00
2015,03,17,13,08,11.00
2015,03,17,13,09,10.90
2015,03,17,13,10,11.00
2015,03,17,13,11,11.00
2015,03,17,13,12,11.00
2015,03,17,13,13,11.00
2015,03,17,13,14,11.00
2015,03,17,13,15,11.00
2015,03,17,13,16,11.00
2015,03,17,13,17,11.10
2015,03,17,13,18,11.20
2015,03,17,13,19,11.30
2015,03,17,13,20,11.30
2015,03,17,13,21,11.30
2015,03,17,13,22,11.30
2015,03,17,13,23,11.30
2015,03,17,13,24,11.40
2015,03,17,13,25,11.40
2015,03,17,13,26,11.40
2015,03,17,13,27,11.50
2015,03,17,13,28,11.50
2015,03,17,13,29,11.50
2015,03,17,13,30,11.40
2015,03,17,13,31,11.50
2015,03,17,13,32,11.70
2015,03,17,13,33,11.80
2015,03,17,13,34,11.80
2015,03,17,13,35,11.80
2015,03,17,13,36,11.80
2015,03,17,13,37,11.90
2015,03,17,13,38,11.90
2015,03,17,13,39,11.90
2015,03,17,13,40,11.80
2015,03,17,13,41,11.80
2015,03,17,13,42,11.80
2015,03,17,13,43,11.80
2015,03,17,13,44,11.80
2015,03,17,13,45,11.80
2015,03,17,13,46,11.80
2015,03,17,13,47,11.80
2015,03,17,13,48,11.70
2015,03,17,13,49,11.70
2015,03,17,13,50,11.70
2015,03,17,13,51,11.70
2015,03,17,13,52,11.80
2015,03,17,13,53,11.80
2015,03,17,13,54,11.90
2015,03,17,13,55,11.90
2015,03,17,13,56,12.00
2015,03,17,13,57,12.10
2015,03,17,13,58,12.20
2015,03,17,13,59,12.30
2015,03,17,14,00,12.40
2015,03,17,14,01,12.40
2015,03,17,14,02,12.30
2015,03,17,14,03,12.30
2015,03,17,14,04,12.30
2015,03,17,14,05,12.30
2015,03,17,14,06,12.20
2015,03,17,14,07,12.10
2015,03,17,14,08,12.10
2015,03,17,14,09,12.20
2015,03,17,14,10,12.20
2015,03,17,14,11,12.20
2015,03,17,14,12,12.20
2015,03,17,14,13,12.20
2015,03,17,14,14,12.20
2015,03,17,14,15,12.30
2015,03,17,14,16,12.30
2015,03,17,14,17,12.30
2015,03,17,14,18,12.40
2015,03,17,14,19,12.40
2015,03,17,14,20,12.40
2015,03,17,14,21,12.40
2015,03,17,14,22,12.40
2015,03,17,14,23,12.40
2015,03,17,14,24,12.40
2015,03,17,14,25,12.40
2015,03,17,14,26,12.40
2015,03,17,14,27,12.50
2015,03,17,14,28,12.50
2015,03,17,14,29,12.60
2015,03,17,14,30,12.70
2015,03,17,14,31,12.80
2015,03,17,14,32,12.80
2015,03,17,14,33,12.80
2015,03,17,14,34,12.80
2015,03,17,14,35,12.80
2015,03,17,14,36,12.70
2015,03,17,14,37,12.60
2015,03,17,14,38,12.60
2015,03,17,14,39,12.60
2015,03,17,14,40,12.60
2015,03,17,14,41,12.50
2015,03,17,14,42,12.40
2015,03,17,14,43,12.40
2015,03,17,14,44,12.30
2015,03,17,14,45,12.30
2015,03,17,14,46,12.30
2015,03,17,14,47,12.30
2015,03,17,14,48,12.20
2015,03,17,14,49,12.20
2015,03,17,14,50,12.20
2015,03,17,14,51,12.20
2015,03,17,14,52,12.20
2015,03,17,14,53,12.20
2015,03,17,14,54,12.10
2015,03,17,14,55,12.10
2015,03,17,14,56,12.10
2015,03,17,14,57,12.10
2015,03,17,14,58,12.20
2015,03,17,14,59,12.10
2015,03,17,15,00,12.00
2015,03,17,15,01,12.00
2015,03,17,15,02,11.90
2015,03,17,15,03,11.90
2015,03,17,15,04,12.00
2015,03,17,15,05,12.00
2015,03,17,15,06,11.90
2015,03,17,15,07,11.90
2015,03,17,15,08,11.90
2015,03,17,15,09,11.90
2015,03,17,15,10,11.90
2015,03,17,15,11,12.00
2015,03,17,15,12,12.10
2015,03,17,15,13,12.10
2015,03,17,15,14,12.10
2015,03,17,15,15,12.10
2015,03,17,15,16,12.10
2015,03,17,15,17,12.10
2015,03,17,15,18,12.10
2015,03,17,15,19,12.10
2015,03,17,15,20,12.00
2015,03,17,15,21,12.00
2015,03,17,15,22,11.90
2015,03,17,15,23,11.90
2015,03,17,15,24,11.90
2015,03,17,15,25,12.00
2015,03,17,15,26,12.10
2015,03,17,15,27,12.10
2015,03,17,15,28,12.20
2015,03,17,15,29,12.30
2015,03,17,15,30,12.30
2015,03,17,15,31,12.30
2015,03,17,15,32,12.30
2015,03,17,15,33,12.30
2015,03,17,15,34,12.30
2015,03,17,15,35,12.30
2015,03,17,15,36,12.30
2015,03,17,15,37,12.20
2015,03,17,15,38,12.20
2015,03,17,15,39,12.20
2015,03,17,15,40,12.10
2015,03,17,15,41,12.10
2015,03,17,15,42,12.00
2015,03,17,15,43,12.00
2015,03,17,15,44,12.00
2015,03,17,15,45,12.00
2015,03,17,15,46,12.00
2015,03,17,15,47,12.00
2015,03,17,15,48,12.00
2015,03,17,15,49,12.00
2015,03,17,15,50,12.00
2015,03,17,15,51,12.00
2015,03,17,15,52,11.90
2015,03,17,15,53,11.80
2015,03,17,15,54,11.80
2015,03,17,15,55,11.80
2015,03,17,15,56,11.80
2015,03,17,15,57,11.80
2015,03,17,15,58,11.80
2015,03,17,15,59,11.80
2015,03,17,16,00,11.80
2015,03,17,16,01,11.90
2015,03,17,16,02,11.90
2015,03,17,16,03,12.00
2015,03,17,16,04,12.10
2015,03,17,16,05,12.10
2015,03,17,16,06,12.10
2015,03,17,16,07,12.10
2015,03,17,16,08,12.10
2015,03,17,16,09,12.10
2015,03,17,16,10,12.10
2015,03,17,16,11,12.10
2015,03,17,16,12,12.10
2015,03,17,16,13,12.00
2015,03,17,16,14,11.90
2015,03,17,16,15,11.80
2015,03,17,16,16,11.80
2015,03,17,16,17,11.80
2015,03,17,16,18,11.80
2015,03,17,16,19,11.80
2015,03,17,16,20,11.80
2015,03,17,16,21,11.70
2015,03,17,16,22,11.70
2015,03,17,16,23,11.70
2015,03,17,16,24,11.70
2015,03,17,16,25,11.70
2015,03,17,16,26,11.70
2015,03,17,16,27,11.70
2015,03,17,16,28,11.70
2015,03,17,16,29,11.70
2015,03,17,16,30,11.60
2015,03,17,16,31,11.60
2015,03,17,16,32,11.60
2015,03,17,16,33,11.50
2015,03,17,16,34,11.50
2015,03,17,16,35,11.60
2015,03,17,16,36,11.60
2015,03,17,16,37,11.60
2015,03,17,16,38,11.60
2015,03,17,16,39,11.60
2015,03,17,16,40,11.60
2015,03,17,16,41,11.60
2015,03,17,16,42,11.60
2015,03,17,16,43,11.60
2015,03,17,16,44,11.60
2015,03,17,16,45,11.60
2015,03,17,16,46,11.70
2015,03,17,16,47,11.70
2015,03,17,16,48,11.70
2015,03,17,16,49,11.70
2015,03,17,16,50,11.80
2015,03,17,16,51,11.70
2015,03,17,16,52,11.70
2015,03,17,16,53,11.70
2015,03,17,16,54,11.70
2015,03,17,16,55,11.80
2015,03,17,16,56,11.80
2015,03,17,16,57,11.80
2015,03,17,16,58,11.90
2015,03,17,16,59,11.90
2015,03,17,17,00,11.90
2015,03,17,17,01,11.90
2015,03,17,17,02,11.80
2015,03,17,17,03,11.80
2015,03,17,17,04,11.80
2015,03,17,17,05,11.90
2015,03,17,17,06,11.90
2015,03,17,17,07,11.90
2015,03,17,17,08,11.90
2015,03,17,17,09,12.00
2015,03,17,17,10,12.10
2015,03,17,17,11,12.20
2015,03,17,17,12,12.30
2015,03,17,17,13,12.50
2015,03,17,17,14,12.50
2015,03,17,17,15,12.60
2015,03,17,17,16,12.70
2015,03,17,17,17,12.70
2015,03,17,17,18,12.60
2015,03,17,17,19,12.60
2015,03,17,17,20,12.50
2015,03,17,17,21,12.40
2015,03,17,17,22,12.30
2015,03,17,17,23,12.30
2015,03,17,17,24,12.30
2015,03,17,17,25,12.20
2015,03,17,17,26,12.20
2015,03,17,17,27,12.10
2015,03,17,17,28,12.10
2015,03,17,17,29,12.00
2015,03,17,17,30,12.00
2015,03,17,17,31,11.90
2015,03,17,17,32,11.90
2015,03,17,17,33,11.80
2015,03,17,17,34,11.70
2015,03,17,17,35,11.70
2015,03,17,17,36,11.70
2015,03,17,17,37,11.70
2015,03,17,17,38,11.60
2015,03,17,17,39,11.60
2015,03,17,17,40,11.50
2015,03,17,17,41,11.50
2015,03,17,17,42,11.50
2015,03,17,17,43,11.40
2015,03,17,17,44,11.40
2015,03,17,17,45,11.40
2015,03,17,17,46,11.40
2015,03,17,17,47,11.40
2015,03,17,17,48,11.30
2015,03,17,17,49,11.30
2015,03,17,17,50,11.30
2015,03,17,17,51,11.30
2015,03,17,17,52,11.30
2015,03,17,17,53,11.20
2015,03,17,17,54,11.20
2015,03,17,17,55,11.20
2015,03,17,17,56,11.20
2015,03,17,17,57,11.20
2015,03,17,17,58,11.10
2015,03,17,17,59,11.10
2015,03,17,18,00,11.10
2015,03,17,18,01,11.10
2015,03,17,18,02,11.10
2015,03,17,18,03,11.10
2015,03,17,18,04,11.10
2015,03,17,18,05,11.10
2015,03,17,18,06,11.10
2015,03,17,18,07,11.10
2015,03,17,18,08,11.10
2015,03,17,18,09,11.10
2015,03,17,18,10,11.10
2015,03,17,18,26,10.70
2015,03,17,18,27,10.70
2015,03,17,18,28,10.70
2015,03,17,18,29,10.70
2015,03,17,18,30,10.60
2015,03,17,18,31,10.60
2015,03,17,18,32,10.60
2015,03,17,18,33,10.60
2015,03,17,18,34,10.50
2015,03,17,18,35,10.50
2015,03,17,18,36,10.40
2015,03,17,18,37,10.40
2015,03,17,18,38,10.40
2015,03,17,18,39,10.40
2015,03,17,18,40,10.40
2015,03,17,18,41,10.40
2015,03,17,18,42,10.40
2015,03,17,18,43,10.30
2015,03,17,18,44,10.30
2015,03,17,18,45,10.20
2015,03,17,18,46,10.20
2015,03,17,18,47,10.20
2015,03,17,18,48,10.20
2015,03,17,18,49,10.20
2015,03,17,18,50,10.20
2015,03,17,18,51,10.20
2015,03,17,18,52,10.20
2015,03,17,18,53,10.20
2015,03,17,18,54,10.20
